| time (UTC) | temp F | wind direction | speed knots | gust knots | rain 1hr in | rain 24hr in | rain mn in | humidity % | barometer mb |
| 20260506211435 | 47 | 112 | 0.0 | 0.0 | 0.00 | 0.14 | 0.14 | 89 | 1011.4 |
| 20260506210933 | 47 | 112 | 0.0 | 2.6 | 0.00 | 0.14 | 0.14 | 89 | 1011.2 |
| 20260506210433 | 47 | 112 | 0.9 | 2.6 | 0.00 | 0.14 | 0.14 | 89 | 1011.1 |
| 20260506205932 | 47 | 110 | 1.7 | 2.6 | 0.00 | 0.14 | 0.14 | 89 | 1011.1 |
| 20260506205431 | 47 | 237 | 0.0 | 2.6 | 0.00 | 0.14 | 0.14 | 89 | 1011.0 |
| 20260506204931 | 47 | 237 | 0.9 | 2.6 | 0.00 | 0.14 | 0.14 | 89 | 1011.0 |
| 20260506203931 | 47 | 180 | 0.0 | 0.0 | 0.00 | 0.14 | 0.14 | 89 | 1011.2 |
| 20260506203430 | 47 | 180 | 0.0 | 0.9 | 0.00 | 0.14 | 0.14 | 88 | 1011.2 |
| 20260506202928 | 47 | 180 | 0.0 | 1.7 | 0.00 | 0.14 | 0.14 | 89 | 1011.2 |
| 20260506202423 | 47 | 180 | 0.0 | 1.7 | 0.00 | 0.14 | 0.14 | 88 | 1011.3 |
| 20260506201417 | 47 | 180 | 0.0 | 0.9 | 0.00 | 0.14 | 0.14 | 88 | 1011.2 |
| 20260506200915 | 48 | 180 | 0.0 | 0.0 | 0.00 | 0.14 | 0.14 | 88 | 1011.2 |
| 20260506200409 | 48 | 180 | 0.0 | 0.0 | 0.00 | 0.14 | 0.14 | 88 | 1011.2 |
| 20260506195906 | 48 | 180 | 0.0 | 0.0 | 0.00 | 0.14 | 0.14 | 88 | 1011.1 |
| 20260506192858 | 49 | 180 | 0.0 | 0.0 | 0.00 | 0.14 | 0.14 | 87 | 1010.8 |
| 20260506192354 | 49 | 180 | 0.0 | 1.7 | 0.00 | 0.14 | 0.14 | 86 | 1010.7 |
| 20260506191347 | 50 | 224 | 0.0 | 2.6 | 0.00 | 0.14 | 0.14 | 86 | 1010.4 |
| 20260506190845 | 50 | 224 | 0.9 | 6.1 | 0.00 | 0.14 | 0.14 | 86 | 1010.3 |
| 20260506190344 | 50 | 216 | 1.7 | 6.1 | 0.00 | 0.14 | 0.14 | 86 | 1010.3 |
| 20260506185333 | 50 | 223 | 1.7 | 2.6 | 0.00 | 0.14 | 0.14 | 86 | 1010.3 |
| 20260506184834 | 50 | 220 | 0.9 | 2.6 | 0.00 | 0.14 | 0.14 | 85 | 1010.2 |
| 20260506184333 | 50 | 226 | 0.9 | 2.6 | 0.00 | 0.14 | 0.14 | 85 | 1010.3 |
| 20260506183832 | 51 | 224 | 0.9 | 2.6 | 0.00 | 0.14 | 0.14 | 84 | 1010.1 |
| 20260506183331 | 51 | 141 | 0.0 | 0.0 | 0.00 | 0.14 | 0.14 | 84 | 1010.1 |
| 20260506182827 | 51 | 141 | 0.0 | 3.5 | 0.00 | 0.14 | 0.14 | 83 | 1010.1 |
| 20260506181820 | 51 | 147 | 1.7 | 3.5 | 0.00 | 0.14 | 0.14 | 82 | 1010.0 |
| 20260506180813 | 52 | 224 | 0.9 | 2.6 | 0.00 | 0.14 | 0.14 | 82 | 1010.0 |
| 20260506180309 | 52 | 149 | 0.9 | 4.3 | 0.00 | 0.14 | 0.14 | 81 | 1009.8 |
| 20260506175808 | 52 | 211 | 0.9 | 4.3 | 0.00 | 0.14 | 0.14 | 81 | 1009.8 |
| 20260506175306 | 52 | 206 | 1.7 | 4.3 | 0.00 | 0.14 | 0.14 | 81 | 1009.7 |
| 20260506174305 | 53 | 164 | 2.6 | 9.6 | 0.00 | 0.14 | 0.14 | 81 | 1009.5 |
| 20260506173805 | 53 | 185 | 2.6 | 9.6 | 0.00 | 0.14 | 0.14 | 81 | 1009.4 |
| 20260506173303 | 53 | 262 | 1.7 | 8.7 | 0.00 | 0.14 | 0.14 | 81 | 1009.3 |
| 20260506172804 | 53 | 233 | 1.7 | 8.7 | 0.00 | 0.14 | 0.14 | 81 | 1009.4 |
| 20260506172306 | 53 | 219 | 2.6 | 8.7 | 0.00 | 0.14 | 0.14 | 81 | 1009.4 |
| 20260506171804 | 53 | 267 | 5.2 | 8.7 | 0.00 | 0.15 | 0.14 | 81 | 1009.4 |
| 20260506171304 | 53 | 225 | 4.3 | 8.7 | 0.00 | 0.15 | 0.14 | 81 | 1009.3 |
| 20260506170804 | 53 | 210 | 5.2 | 9.6 | 0.00 | 0.18 | 0.14 | 81 | 1009.3 |
| 20260506165802 | 53 | 236 | 3.5 | 9.6 | 0.00 | 0.20 | 0.14 | 82 | 1009.2 |
| 20260506165305 | 53 | 218 | 3.5 | 9.6 | 0.00 | 0.20 | 0.14 | 82 | 1009.2 |
| 20260506164802 | 53 | 250 | 5.2 | 9.6 | 0.00 | 0.20 | 0.14 | 82 | 1009.3 |
| 20260506164302 | 53 | 217 | 4.3 | 11.3 | 0.00 | 0.21 | 0.14 | 82 | 1009.2 |
| 20260506163802 | 53 | 204 | 4.3 | 11.3 | 0.00 | 0.21 | 0.14 | 83 | 1009.1 |
| 20260506163303 | 53 | 243 | 4.3 | 9.6 | 0.00 | 0.21 | 0.14 | 83 | 1009.1 |
| 20260506162758 | 53 | 208 | 2.6 | 11.3 | 0.00 | 0.21 | 0.14 | 84 | 1009.1 |
| 20260506161250 | 53 | 231 | 5.2 | 10.4 | 0.00 | 0.22 | 0.14 | 84 | 1009.1 |
| 20260506160242 | 52 | 240 | 4.3 | 8.7 | 0.00 | 0.22 | 0.14 | 84 | 1008.9 |
| 20260506155743 | 52 | 256 | 4.3 | 8.7 | 0.00 | 0.22 | 0.14 | 85 | 1009.1 |
| 20260506155239 | 52 | 223 | 4.3 | 11.3 | 0.00 | 0.22 | 0.14 | 85 | 1009.1 |
| 20260506154736 | 52 | 233 | 4.3 | 11.3 | 0.00 | 0.22 | 0.14 | 85 | 1009.1 |
| 20260506154232 | 52 | 218 | 4.3 | 10.4 | 0.00 | 0.22 | 0.14 | 85 | 1008.9 |
| 20260506153732 | 52 | 238 | 3.5 | 11.3 | 0.00 | 0.22 | 0.14 | 85 | 1009.1 |
| 20260506153232 | 52 | 163 | 4.3 | 11.3 | 0.00 | 0.22 | 0.14 | 85 | 1009.1 |
| 20260506152731 | 52 | 233 | 3.5 | 10.4 | 0.00 | 0.22 | 0.14 | 84 | 1009.2 |
| 20260506152231 | 52 | 195 | 3.5 | 10.4 | 0.00 | 0.22 | 0.14 | 84 | 1009.2 |
| 20260506151729 | 52 | 254 | 5.2 | 11.3 | 0.00 | 0.22 | 0.14 | 85 | 1009.2 |
| 20260506150723 | 53 | 228 | 3.5 | 7.0 | 0.00 | 0.22 | 0.14 | 86 | 1009.2 |
| 20260506150219 | 52 | 235 | 2.6 | 7.8 | 0.00 | 0.22 | 0.14 | 86 | 1009.3 |
| 20260506145717 | 52 | 212 | 3.5 | 7.8 | 0.00 | 0.22 | 0.14 | 86 | 1009.2 |
| 20260506145214 | 52 | 169 | 2.6 | 7.8 | 0.00 | 0.22 | 0.14 | 87 | 1009.1 |
| 20260506144711 | 52 | 193 | 3.5 | 7.8 | 0.01 | 0.22 | 0.14 | 87 | 1009.1 |
| 20260506144208 | 52 | 132 | 3.5 | 7.0 | 0.02 | 0.22 | 0.14 | 87 | 1009.1 |
| 20260506143705 | 52 | 226 | 3.5 | 7.8 | 0.03 | 0.22 | 0.14 | 87 | 1009.1 |
| 20260506143206 | 52 | 155 | 2.6 | 7.8 | 0.04 | 0.22 | 0.14 | 87 | 1009.1 |
| 20260506142704 | 51 | 263 | 1.7 | 10.4 | 0.05 | 0.22 | 0.14 | 87 | 1008.8 |
| 20260506142205 | 51 | 219 | 4.3 | 10.4 | 0.06 | 0.22 | 0.14 | 87 | 1008.9 |
| 20260506141705 | 51 | 197 | 4.3 | 10.4 | 0.06 | 0.22 | 0.14 | 87 | 1009.1 |
| 20260506140703 | 50 | 245 | 6.1 | 14.8 | 0.08 | 0.22 | 0.14 | 88 | 1009.1 |
| 20260506140202 | 50 | 226 | 5.2 | 8.7 | 0.08 | 0.22 | 0.14 | 88 | 1009.1 |
| 20260506135703 | 50 | 228 | 3.5 | 9.6 | 0.08 | 0.14 | 0.14 | 88 | 1009.1 |
| 20260506135202 | 50 | 201 | 6.1 | 11.3 | 0.09 | 0.14 | 0.13 | 87 | 1009.1 |
| 20260506134703 | 50 | 249 | 5.2 | 13.0 | 0.09 | 0.14 | 0.13 | 87 | 1008.9 |
| 20260506134158 | 50 | 233 | 6.1 | 15.6 | 0.09 | 0.14 | 0.12 | 87 | 1009.1 |
| 20260506133656 | 50 | 214 | 7.8 | 15.6 | 0.09 | 0.14 | 0.11 | 87 | 1009.1 |
| 20260506133153 | 51 | 226 | 5.2 | 10.4 | 0.09 | 0.14 | 0.10 | 87 | 1008.9 |
| 20260506132145 | 51 | 189 | 6.1 | 17.4 | 0.09 | 0.14 | 0.09 | 86 | 1008.7 |
| 20260506131644 | 51 | 211 | 4.3 | 21.7 | 0.08 | 0.14 | 0.08 | 86 | 1008.7 |
| 20260506131139 | 51 | 237 | 9.6 | 21.7 | 0.07 | 0.14 | 0.07 | 86 | 1008.4 |
| 20260506130635 | 51 | 240 | 7.0 | 18.2 | 0.06 | 0.14 | 0.06 | 86 | 1008.4 |
| 20260506130136 | 52 | 141 | 7.8 | 18.2 | 0.06 | 0.14 | 0.06 | 85 | 1008.4 |
| 20260506125633 | 52 | 200 | 9.6 | 20.0 | 0.06 | 0.08 | 0.06 | 85 | 1008.3 |
| 20260506125132 | 52 | 247 | 9.6 | 23.5 | 0.06 | 0.08 | 0.06 | 84 | 1008.2 |
| 20260506124631 | 53 | 235 | 11.3 | 23.5 | 0.05 | 0.08 | 0.05 | 83 | 1008.0 |
| 20260506124130 | 54 | 261 | 11.3 | 23.5 | 0.03 | 0.08 | 0.03 | 82 | 1007.9 |
| 20260506123626 | 55 | 261 | 9.6 | 14.8 | 0.02 | 0.08 | 0.02 | 82 | 1007.6 |
| 20260506123123 | 56 | 345 | 7.0 | 12.2 | 0.01 | 0.08 | 0.01 | 81 | 1007.4 |
| 20260506122619 | 56 | 228 | 5.2 | 11.3 | 0.01 | 0.08 | 0.01 | 80 | 1007.3 |
| 20260506121614 | 57 | 232 | 7.8 | 13.9 | 0.00 | 0.08 | 0.00 | 77 | 1006.9 |
| 20260506121109 | 57 | 207 | 7.0 | 12.2 | 0.00 | 0.08 | 0.00 | 78 | 1006.8 |
| 20260506120606 | 58 | 242 | 5.2 | 11.3 | 0.00 | 0.08 | 0.00 | 78 | 1006.8 |
| 20260506120105 | 58 | 236 | 4.3 | 11.3 | 0.00 | 0.08 | 0.00 | 77 | 1006.7 |
| 20260506115104 | 59 | 260 | 6.1 | 11.3 | 0.00 | 0.08 | 0.00 | 76 | 1006.5 |
| 20260506114559 | 59 | 263 | 3.5 | 11.3 | 0.00 | 0.08 | 0.00 | 76 | 1006.5 |
| 20260506114056 | 60 | 247 | 4.3 | 10.4 | 0.00 | 0.08 | 0.00 | 75 | 1006.4 |
| 20260506113049 | 60 | 232 | 3.5 | 7.8 | 0.00 | 0.08 | 0.00 | 74 | 1006.4 |
| 20260506112042 | 60 | 222 | 3.5 | 8.7 | 0.00 | 0.08 | 0.00 | 76 | 1006.3 |
| 20260506111539 | 59 | 256 | 5.2 | 8.7 | 0.00 | 0.08 | 0.00 | 75 | 1006.2 |
| 20260506111035 | 59 | 230 | 2.6 | 5.2 | 0.00 | 0.08 | 0.00 | 76 | 1006.3 |
| 20260506110533 | 59 | 317 | 1.7 | 8.7 | 0.00 | 0.08 | 0.00 | 75 | 1006.5 |
| 20260506110034 | 59 | 259 | 3.5 | 8.7 | 0.00 | 0.08 | 0.00 | 75 | 1006.7 |
| 20260506105531 | 59 | 231 | 3.5 | 6.1 | 0.00 | 0.08 | 0.00 | 78 | 1006.5 |
| 20260506105031 | 59 | 236 | 3.5 | 6.1 | 0.00 | 0.08 | 0.00 | 78 | 1006.4 |
| 20260506104532 | 59 | 212 | 2.6 | 7.8 | 0.00 | 0.09 | 0.00 | 78 | 1006.7 |
| 20260506104032 | 58 | 225 | 2.6 | 7.8 | 0.00 | 0.09 | 0.00 | 79 | 1006.7 |
| 20260506103028 | 59 | 240 | 2.6 | 3.5 | 0.00 | 0.09 | 0.00 | 79 | 1006.7 |
| 20260506102524 | 58 | 151 | 0.9 | 4.3 | 0.00 | 0.09 | 0.00 | 79 | 1006.5 |
| 20260506101518 | 58 | 257 | 3.5 | 6.1 | 0.00 | 0.09 | 0.00 | 79 | 1006.8 |
| 20260506100012 | 58 | 233 | 3.5 | 7.0 | 0.00 | 0.09 | 0.00 | 80 | 1007.0 |
| 20260506095512 | 58 | 243 | 3.5 | 7.0 | 0.00 | 0.09 | 0.00 | 80 | 1007.0 |
| 20260506095007 | 58 | 218 | 0.9 | 6.1 | 0.00 | 0.09 | 0.00 | 80 | 1006.9 |
| 20260506094504 | 58 | 180 | 3.5 | 7.0 | 0.00 | 0.09 | 0.00 | 79 | 1006.8 |
| 20260506094007 | 58 | 255 | 2.6 | 5.2 | 0.00 | 0.09 | 0.00 | 79 | 1006.8 |
| 20260506093504 | 57 | 237 | 2.6 | 4.3 | 0.00 | 0.09 | 0.00 | 80 | 1006.8 |
| 20260506093004 | 57 | 255 | 0.0 | 1.7 | 0.00 | 0.09 | 0.00 | 81 | 1006.5 |
| 20260506092503 | 56 | 256 | 0.0 | 1.7 | 0.00 | 0.09 | 0.00 | 82 | 1006.7 |
| 20260506092001 | 56 | 258 | 0.0 | 1.7 | 0.00 | 0.10 | 0.00 | 84 | 1006.5 |
| 20260506090954 | 56 | 258 | 0.0 | 1.7 | 0.00 | 0.11 | 0.00 | 84 | 1006.8 |
| 20260506090451 | 56 | 233 | 0.9 | 4.3 | 0.00 | 0.11 | 0.00 | 83 | 1006.8 |
| 20260506085949 | 56 | 232 | 1.7 | 4.3 | 0.00 | 0.11 | 0.00 | 82 | 1006.8 |
| 20260506084943 | 56 | 226 | 3.5 | 5.2 | 0.00 | 0.11 | 0.00 | 82 | 1006.9 |
| 20260506084440 | 56 | 240 | 1.7 | 5.2 | 0.00 | 0.11 | 0.00 | 83 | 1006.8 |
| 20260506083936 | 56 | 206 | 3.5 | 5.2 | 0.00 | 0.11 | 0.00 | 83 | 1006.7 |
| 20260506083431 | 56 | 218 | 0.9 | 4.3 | 0.00 | 0.11 | 0.00 | 84 | 1006.7 |
| 20260506082432 | 55 | 266 | 0.0 | 2.6 | 0.00 | 0.11 | 0.00 | 87 | 1006.7 |
| 20260506081929 | 55 | 270 | 0.0 | 2.6 | 0.00 | 0.11 | 0.00 | 88 | 1006.7 |
| 20260506081422 | 54 | 280 | 1.7 | 2.6 | 0.00 | 0.11 | 0.00 | 88 | 1006.7 |
| 20260506080917 | 54 | 283 | 0.0 | 1.7 | 0.00 | 0.11 | 0.00 | 89 | 1006.8 |
| 20260506073401 | 53 | 357 | 0.9 | 1.7 | 0.00 | 0.11 | 0.00 | 90 | 1006.8 |
| 20260506072842 | 53 | 357 | 0.0 | 0.9 | 0.00 | 0.11 | 0.00 | 90 | 1006.9 |
| 20260506072338 | 53 | 358 | 0.0 | 1.7 | 0.00 | 0.11 | 0.00 | 91 | 1006.9 |
| 20260506071835 | 52 | 358 | 0.0 | 1.7 | 0.00 | 0.11 | 0.00 | 91 | 1006.9 |
| 20260506071335 | 52 | 355 | 0.0 | 0.9 | 0.00 | 0.11 | 0.00 | 91 | 1007.0 |
| 20260506070834 | 52 | 356 | 0.0 | 2.6 | 0.00 | 0.11 | 0.00 | 91 | 1007.0 |
| 20260506061834 | 50 | 345 | 0.0 | 0.0 | 0.00 | 0.11 | 0.00 | 92 | 1007.0 |
| 20260506061331 | 50 | 345 | 0.0 | 0.0 | 0.00 | 0.11 | 0.00 | 91 | 1007.1 |
| 20260506060831 | 50 | 345 | 0.0 | 0.0 | 0.00 | 0.11 | 0.00 | 92 | 1007.0 |
| 20260506051302 | 49 | 347 | 0.0 | 0.0 | 0.00 | 0.11 | 0.00 | 92 | 1007.2 |
| 20260506050802 | 49 | 347 | 0.0 | 0.0 | 0.00 | 0.11 | 0.00 | 91 | 1007.1 |
| 20260506050257 | 48 | 347 | 0.0 | 0.0 | 0.00 | 0.11 | 0.00 | 91 | 1007.1 |
| 20260506044748 | 49 | 347 | 0.0 | 0.0 | 0.00 | 0.11 | 0.00 | 91 | 1007.1 |
| 20260506044242 | 48 | 347 | 0.0 | 0.9 | 0.00 | 0.11 | 0.00 | 91 | 1007.1 |
| 20260506043738 | 48 | 347 | 0.0 | 0.9 | 0.00 | 0.11 | 0.00 | 91 | 1007.1 |
| 20260506043236 | 48 | 347 | 0.0 | 0.0 | 0.00 | 0.11 | 0.00 | 91 | 1007.1 |
| 20260506042732 | 48 | 347 | 0.0 | 0.0 | 0.00 | 0.11 | 0.00 | 91 | 1007.2 |
| 20260506042232 | 48 | 347 | 0.0 | 0.0 | 0.00 | 0.11 | 0.00 | 91 | 1007.3 |
| 20260506041727 | 48 | 347 | 0.0 | 0.0 | 0.00 | 0.11 | 0.00 | 91 | 1007.2 |
| 20260506041223 | 48 | 347 | 0.0 | 0.0 | 0.00 | 0.11 | 0.00 | 91 | 1007.2 |
| 20260506040720 | 48 | 347 | 0.0 | 0.0 | 0.00 | 0.11 | 0.00 | 91 | 1007.4 |
| 20260506040216 | 48 | 347 | 0.0 | 0.0 | 0.00 | 0.11 | 0.00 | 91 | 1007.4 |
| 20260506035713 | 48 | 347 | 0.0 | 0.0 | 0.00 | 0.11 | 0.00 | 91 | 1007.4 |
| 20260506035209 | 48 | 347 | 0.0 | 0.0 | 0.00 | 0.11 | 0.00 | 91 | 1007.5 |
| 20260506034706 | 48 | 347 | 0.0 | 0.0 | 0.00 | 0.11 | 0.00 | 91 | 1007.6 |
| 20260506034204 | 48 | 347 | 0.0 | 0.0 | 0.00 | 0.11 | 0.00 | 91 | 1007.7 |
| 20260506033705 | 49 | 347 | 0.0 | 2.6 | 0.00 | 0.11 | 0.00 | 91 | 1007.7 |
| 20260506032705 | 49 | 347 | 0.9 | 3.5 | 0.00 | 0.11 | 0.00 | 91 | 1007.9 |
| 20260506032203 | 49 | 324 | 0.0 | 2.6 | 0.00 | 0.11 | 0.00 | 91 | 1007.8 |
| 20260506031705 | 49 | 295 | 0.0 | 0.9 | 0.00 | 0.11 | 0.00 | 91 | 1007.9 |
| 20260506031202 | 49 | 295 | 0.0 | 0.9 | 0.00 | 0.11 | 0.00 | 91 | 1008.0 |
| 20260506030202 | 49 | 295 | 0.0 | 0.0 | 0.00 | 0.11 | 0.00 | 91 | 1007.9 |
| 20260506025703 | 49 | 295 | 0.0 | 0.0 | 0.00 | 0.11 | 0.00 | 91 | 1007.9 |
| 20260506025202 | 49 | 295 | 0.0 | 0.0 | 0.00 | 0.11 | 0.00 | 91 | 1007.9 |
| 20260506024702 | 49 | 295 | 0.0 | 0.0 | 0.00 | 0.11 | 0.00 | 91 | 1008.1 |
| 20260506023649 | 49 | 295 | 0.0 | 0.0 | 0.00 | 0.11 | 0.00 | 91 | 1008.2 |
| 20260506023147 | 49 | 295 | 0.0 | 0.0 | 0.00 | 0.11 | 0.00 | 91 | 1008.2 |
| 20260506022633 | 49 | 295 | 0.0 | 0.0 | 0.00 | 0.11 | 0.00 | 91 | 1008.3 |
| 20260506022133 | 49 | 295 | 0.0 | 0.0 | 0.00 | 0.11 | 0.00 | 91 | 1008.3 |
| 20260506021123 | 49 | 295 | 0.0 | 0.0 | 0.00 | 0.11 | 0.00 | 91 | 1008.4 |
| 20260506020614 | 49 | 295 | 0.0 | 0.0 | 0.00 | 0.11 | 0.00 | 90 | 1008.5 |
| 20260506015604 | 49 | 295 | 0.0 | 0.0 | 0.00 | 0.11 | 0.00 | 91 | 1008.6 |
| 20260506015104 | 49 | 295 | 0.0 | 0.0 | 0.00 | 0.11 | 0.00 | 91 | 1008.6 |
| 20260506014604 | 49 | 295 | 0.0 | 0.0 | 0.00 | 0.11 | 0.00 | 90 | 1008.6 |
| 20260506014101 | 50 | 295 | 0.0 | 0.0 | 0.00 | 0.11 | 0.00 | 90 | 1008.7 |
| 20260506013553 | 49 | 295 | 0.0 | 0.0 | 0.00 | 0.11 | 0.00 | 90 | 1008.8 |
| 20260506013050 | 49 | 295 | 0.0 | 0.0 | 0.00 | 0.11 | 0.00 | 90 | 1008.7 |
| 20260506012534 | 49 | 295 | 0.0 | 0.0 | 0.00 | 0.11 | 0.00 | 90 | 1008.7 |
| 20260506012029 | 50 | 295 | 0.0 | 0.0 | 0.00 | 0.11 | 0.00 | 90 | 1008.7 |
| 20260506011521 | 50 | 295 | 0.0 | 0.0 | 0.00 | 0.11 | 0.00 | 90 | 1008.5 |
| 20260506011013 | 50 | 295 | 0.0 | 0.0 | 0.00 | 0.11 | 0.00 | 90 | 1008.7 |
| 20260506010509 | 50 | 295 | 0.0 | 0.0 | 0.00 | 0.11 | 0.00 | 90 | 1008.8 |
| 20260506010009 | 50 | 295 | 0.0 | 0.0 | 0.00 | 0.11 | 0.00 | 90 | 1008.9 |
| 20260506005507 | 50 | 295 | 0.0 | 0.9 | 0.00 | 0.11 | 0.00 | 90 | 1008.8 |
| 20260506005008 | 50 | 295 | 0.0 | 1.7 | 0.00 | 0.11 | 0.00 | 90 | 1008.9 |
| 20260506004505 | 50 | 295 | 1.7 | 1.7 | 0.00 | 0.11 | 0.00 | 90 | 1008.9 |
| 20260506004005 | 50 | 317 | 0.0 | 0.0 | 0.00 | 0.11 | 0.00 | 90 | 1008.9 |
| 20260506003457 | 50 | 317 | 0.0 | 0.0 | 0.00 | 0.11 | 0.00 | 90 | 1009.1 |
| 20260506002953 | 50 | 317 | 0.0 | 0.9 | 0.00 | 0.11 | 0.00 | 90 | 1009.1 |
| 20260506002450 | 51 | 317 | 0.0 | 0.9 | 0.00 | 0.11 | 0.00 | 90 | 1009.2 |
| 20260506001947 | 51 | 317 | 0.0 | 0.9 | 0.00 | 0.11 | 0.00 | 90 | 1009.3 |
| 20260505235916 | 51 | 317 | 0.0 | 0.0 | 0.00 | 0.11 | 0.00 | 90 | 1009.3 |
| 20260505235414 | 51 | 317 | 0.0 | 0.0 | 0.00 | 0.11 | 0.00 | 89 | 1009.2 |
| 20260505234911 | 51 | 317 | 0.0 | 0.9 | 0.00 | 0.11 | 0.00 | 90 | 1009.2 |
| 20260505234409 | 52 | 317 | 0.0 | 0.9 | 0.00 | 0.11 | 0.00 | 90 | 1009.2 |
| 20260505233906 | 52 | 17 | 0.0 | 0.0 | 0.00 | 0.11 | 0.00 | 90 | 1009.2 |
| 20260505233407 | 52 | 17 | 0.0 | 0.0 | 0.00 | 0.11 | 0.00 | 90 | 1009.3 |
| 20260505232902 | 51 | 17 | 0.0 | 0.0 | 0.00 | 0.11 | 0.00 | 89 | 1009.3 |
| 20260505232401 | 52 | 17 | 0.0 | 0.0 | 0.00 | 0.11 | 0.00 | 89 | 1009.6 |
| 20260505231354 | 52 | 17 | 0.0 | 0.0 | 0.00 | 0.11 | 0.00 | 89 | 1009.6 |
| 20260505230851 | 52 | 17 | 0.0 | 0.0 | 0.00 | 0.11 | 0.00 | 89 | 1009.6 |
| 20260505230348 | 52 | 17 | 0.0 | 0.0 | 0.00 | 0.11 | 0.00 | 89 | 1009.7 |
| 20260505225847 | 52 | 17 | 0.0 | 0.0 | 0.00 | 0.11 | 0.00 | 89 | 1009.6 |
| 20260505225335 | 53 | 17 | 0.0 | 0.0 | 0.00 | 0.11 | 0.00 | 89 | 1009.6 |
| 20260505224835 | 53 | 17 | 0.0 | 0.0 | 0.00 | 0.11 | 0.00 | 89 | 1009.5 |
| 20260505223835 | 53 | 17 | 0.0 | 0.0 | 0.00 | 0.11 | 0.00 | 89 | 1009.5 |
| 20260505223335 | 53 | 17 | 0.0 | 0.0 | 0.00 | 0.11 | 0.00 | 89 | 1009.4 |
| 20260505222327 | 53 | 17 | 0.0 | 0.0 | 0.00 | 0.11 | 0.00 | 89 | 1009.5 |
| 20260505221824 | 53 | 17 | 0.0 | 0.0 | 0.00 | 0.11 | 0.00 | 89 | 1009.4 |
| 20260505220803 | 53 | 17 | 0.0 | 2.6 | 0.00 | 0.11 | 0.00 | 89 | 1009.6 |
| 20260505220302 | 53 | 17 | 0.9 | 2.6 | 0.00 | 0.11 | 0.00 | 88 | 1009.7 |
| 20260505215753 | 54 | 243 | 0.0 | 0.9 | 0.00 | 0.11 | 0.11 | 88 | 1009.7 |
| 20260505215250 | 53 | 243 | 0.0 | 0.9 | 0.00 | 0.11 | 0.11 | 88 | 1009.7 |
| 20260505214747 | 53 | 243 | 0.0 | 0.9 | 0.00 | 0.11 | 0.11 | 88 | 1009.8 |
| 20260505213741 | 53 | 243 | 0.9 | 2.6 | 0.00 | 0.11 | 0.11 | 88 | 1009.7 |
| 20260505213238 | 53 | 219 | 1.7 | 2.6 | 0.00 | 0.11 | 0.11 | 88 | 1009.9 |
| 20260505212735 | 53 | 216 | 0.9 | 2.6 | 0.00 | 0.11 | 0.11 | 88 | 1009.9 |
| 20260505212233 | 53 | 216 | 0.9 | 3.5 | 0.00 | 0.11 | 0.11 | 88 | 1010.0 |